User: anonymous   Login
Location: Caltech
(34.1382°N, 118.1253°W)
Time: 03:29:02
(UTC-07:00)
Language:

TITAN 4B R/B - Orbit

View from above orbital plane
View from above orbital plane
View from above satellite
View from above satellite

Ground track
Ground track

The orbit data is extracted from the following two-line orbital elements,

1 28647U 05016B   15148.96223050 0.00001500  00000-0  90681-4 0    02
2 28647  56.9966 177.8354 0135111  61.4576 298.5424 15.02815563    06
Epoch (UTC): 28 May 2015 23:05:36
Eccentricity: 0.0135111
inclination: 56.9966°
perigee height: 464 km
apogee height: 652 km
right ascension of ascending node: 177.8354°
argument of perigee: 61.4576°
revolutions per day: 15.02815563
mean anomaly at epoch: 298.5424°
orbit number at epoch: 0

The dashed part of the orbit path shows where the satellite is in the earth's shadow,  

DLR